Regional Weather Roundup
Issued by NWS

Current Version | Previous Version | Text Only | Print | Product List | Glossary On
Versions: 1 2 3 4 5 6 7 8 9 10 11 12 13 14 15 16 17 18 19 20 21 22 23 24 25 26 27 28 29 30 31 32 33 34 35 36 37 38 39 40 41 42 43 44 45 46 47 48 49 50
000
ASUS45 KTFX 201304
RWRMT
MONTANA HOURLY WEATHER ROUNDUP
NATIONAL WEATHER SERVICE GREAT FALLS MT
604 AM MST SAT DEC 20 2014

NOTE: "FAIR" INDICATES FEW OR NO CLOUDS BELOW 12000 FEET WITH NO
SIGNIFICANT WEATHER AND/OR OBSTRUCTIONS TO VISIBILITY.

* THESE STATIONS ARE NOT UNDER NWS QUALITY CONTROL. THEY DO NOT
   REPORT WEATHER SUCH AS PRECIPITATION OR FOG.

MTZ001>007-043-201400-
WEST OF THE DIVIDE
CITY           SKY/WX    TMP DP  RH WIND       PRES   REMARKS
KALISPELL      MOCLDY    30  28  92 W3        29.94F
MISSOULA       FOG       27  25  92 CALM      29.99F VSB M1/4
BUTTE          CLOUDY    19  14  81 CALM      29.95S
MULLAN PASS    CLOUDY    25  23  92 VRB5      29.86F WCI  19
* ESSEX        N/A       31  30  96 N/A        N/A
* LINCOLN      N/A       28  22  78 SW2G7      N/A
* LOOKOUT PASS N/A       28  28 100 N/A        N/A
* POLSON       N/A       28  27  96 N/A        N/A
* RONAN APT    MOCLDY    32  30  92 N/A        N/A
* SEELEY LAKE  N/A       22  20  92 NE1        N/A
* THOMP F APT  CLOUDY    26  25  96 S1G8       N/A
$$

MTZ008-052>055-201400-
SOUTHWEST MONTANA
CITY           SKY/WX    TMP DP  RH WIND       PRES   REMARKS
BOZEMAN        MOCLDY    21  19  92 SE5       29.97R WCI  14
DILLON         MOCLDY    27  19  72 SE9       29.96S WCI  18
* W YELLOWSTON PTCLDY    25  23  92 S1G6       N/A
* THREE FORKS  MOCLDY    27  27 100 N/A        N/A
* BOULDER HILL N/A       23  16  74 SW2        N/A
* MONIDA PASS  N/A       24  24 100 SE5        N/A   WCI  18
* RAYNOLDS PAS N/A       23   4  44 SE10       N/A   WCI  13
* WHITEHALL    N/A       27  19  72 N4G9       N/A
* WISE RIVER   N/A       20  17  88 SW2G7      N/A
$$

MTZ009>010-012-014-046-048-049-054-201400-
EAST SLOPES AND CENTRAL MONTANA
CITY           SKY/WX    TMP DP  RH WIND       PRES   REMARKS
CUT BANK       CLEAR     34  21  59 W23G36    29.79F WCI  22
GREAT FALLS    CLEAR     32  21  64 SW16      29.86R WCI  21
HELENA         MOCLDY    36  19  50 S5        29.95R WCI  32
* DEARBORN     N/A       39  19  45 S8G20      N/A   WCI  33
* EAST GLACIER N/A       31  17  56 W16G21     N/A   WCI  20
* MONARCH      N/A       30  12  47 SW21G27    N/A   WCI  17
* PENDROY      N/A       32  17  54 W22G27     N/A   WCI  19
* ROGERS PASS  N/A       28  19  69 SE21G37    N/A   WCI  14
* SWEET GRASS  N/A       30  21  69 W19G24     N/A   WCI  18
$$

MTZ011-013-016-021-035-040-045-047-050-051-201400-
NORTH CENTRAL MONTANA
CITY           SKY/WX    TMP DP  RH WIND       PRES   REMARKS
HAVRE          CLOUDY    36  27  70 SW14      29.82R WCI  27
LEWISTOWN      CLEAR     30  19  64 SW13      29.86R WCI  20
* N BAR RANCH  CLEAR     32  14  47 NW8       29.85S WCI  25
* CHESTER      N/A       30  22  72 W10G15     N/A   WCI  21
* DENTON       N/A       29  21  72 SW8        N/A   WCI  21
* GEYSER       N/A       26  17  69 W10        N/A   WCI  16
* JUDITH GAP   N/A       32  19  59 SW20       N/A   WCI  20
* LOMA         N/A       34  23  64 SW9        N/A   WCI  27
$$

MTZ017>020-022>027-061-062-201400-
NORTHEAST MONTANA
CITY           SKY/WX    TMP DP  RH WIND       PRES   REMARKS
GLASGOW        PTCLDY    23  21  92 E5        29.81S WCI  16
GLENDIVE       MOCLDY    28  23  81 SW7       29.85R WCI  21
JORDAN         MOCLDY    30  27  89 W8        29.84S WCI  22
SIDNEY         MOCLDY    27  23  85 S8        29.85S WCI  19
WOLF POINT     FOG       19  18  96 CALM      29.83F
* BEAVER HILL  N/A       34  24  67 SW15G20    N/A   WCI  24
* CIRCLE       N/A       31  26  82 N/A        N/A
* LINDSAY DVD  N/A       34  27  76 W9         N/A   WCI  27
* NAVAJO       N/A       31  28  89 SW6G11     N/A   WCI  25
* SACO         N/A       28  26  92 S8         N/A   WCI  20
$$

MTZ028>042-056>058-201400-
SOUTHCENTRAL AND SOUTHEAST MONTANA
CITY           SKY/WX    TMP DP  RH WIND       PRES   REMARKS
BAKER          CLOUDY    36  27  70 W8        29.85S WCI  30
BILLINGS       FAIR      32  21  64 SW16      29.89F WCI  21
LIVINGSTON     CLOUDY    39  21  48 W13       29.93R WCI  31
MILES CITY     MOCLDY    30  25  82 SW5       29.88R WCI  25
* LAUREL APT   CLEAR     28  12  51 N/A        N/A
* ROUNDUP APT  CLEAR     37  21  52 SW8        N/A   WCI  31
* ALZADA       N/A       36  25  64 S1         N/A
* HYSHAM       N/A       34  21  59 W3         N/A
* LAME DEER    N/A       32  22  67 W11        N/A   WCI  23
* REED POINT   N/A       33  27  79 SW4        N/A
* ROSCOE HILL  N/A       32   9  38 E6         N/A   WCI  26
$$

REGIONAL REPORTS...DAKOTAS
CITY           SKY/WX    TMP DP  RH WIND       PRES   REMARKS
WILLISTON      CLOUDY    19  18  96 CALM      29.84S
DICKINSON      CLOUDY    30  25  82 S6        29.82S WCI  24
BEACH          CLOUDY    32  28  85 CALM      29.84S
CROSBY         MOCLDY    18  18 100 E6        29.84F WCI  10
WATFORD CITY   MOCLDY    19  18  96 CALM      29.82F
BISMARCK       FOG       18  16  92 E7        29.93F VSB 3/4  WCI   9
GRAND FORKS    FOG       28  27  96 SW9       30.00R WCI  19
FARGO          CLOUDY    30  27  89 S12       30.02S WCI  20
BUFFALO SD     MOCLDY    34  25  70 W9        29.80R WCI  27
RAPID CITY     CLOUDY    36  23  59 NW9       29.89R WCI  29
$$

REGIONAL REPORTS...WYOMING/IDAHO/WASHINGTON
CITY           SKY/WX    TMP DP  RH WIND       PRES   REMARKS
GILLETTE       CLOUDY    30  25  82 S5        29.91S WCI  25
SHERIDAN       PTCLDY    25  18  75 N/A       29.91R
CODY           PTCLDY    39  21  48 SW9G18    29.91R WCI  33
YELLOWSTONE LA CLOUDY    25  21  85 VRB3      30.00F
SALMON         CLOUDY    27  27 100 CALM      30.00F VSB M1/4
MULLAN PASS    CLOUDY    25  23  92 VRB5      29.86S WCI  19
SAND POINT     CLOUDY    36  36 100 NE6       29.94F WCI  31
SPOKANE        LGT RAIN  36  34  92 E5        29.89F WCI  32
$$

REGIONAL REPORTS...ALBERTA
CITY           SKY/WX    TMP DP  RH WIND       PRES   REMARKS
CALGARY        N/A       36  12  37 W17G24    29.71F WCI  26

$$



USA.gov is the U.S. government's official web portal to all federal, state and local government web resources and services.